Time,TemperatureF,DewpointF,PressureIn,WindDirection,WindDirectionDegrees,WindSpeedMPH,WindSpeedGustMPH,Humidity,HourlyPrecipIn,Conditions,Clouds,dailyrainin,SoftwareType,DateUTC
2013-03-06 00:00:00,55.1,52.2,29.66,NW,307,6.0,8.0,90,0.12,,,0.10,Wunderground v.1.15,2013-03-06 05:00:00,
2013-03-06 00:05:00,55.0,51.8,29.65,NW,311,6.0,8.0,89,0.14,,,0.11,Wunderground v.1.15,2013-03-06 05:05:00,
2013-03-06 00:10:00,54.9,52.0,29.65,North,352,6.0,6.0,90,0.36,,,0.14,Wunderground v.1.15,2013-03-06 05:10:00,
2013-03-06 00:15:00,54.9,52.0,29.64,NNW,329,5.0,8.0,90,0.10,,,0.14,Wunderground v.1.15,2013-03-06 05:15:00,
2013-03-06 00:25:00,54.9,52.0,29.63,SSE,167,5.0,8.0,90,0.04,,,0.14,Wunderground v.1.15,2013-03-06 05:25:00,
2013-03-06 00:30:00,55.1,52.2,29.62,ENE,70,5.0,11.0,90,0.00,,,0.14,Wunderground v.1.15,2013-03-06 05:30:00,
2013-03-06 00:35:00,55.3,52.4,29.61,ENE,70,6.0,11.0,90,0.00,,,0.14,Wunderground v.1.15,2013-03-06 05:35:00,
2013-03-06 00:40:00,55.6,52.4,29.61,NW,317,6.0,6.0,89,0.00,,,0.14,Wunderground v.1.15,2013-03-06 05:40:00,
2013-03-06 00:45:00,55.8,52.6,29.60,WNW,295,6.0,8.0,89,0.00,,,0.14,Wunderground v.1.15,2013-03-06 05:45:00,
2013-03-06 00:50:00,56.1,52.9,29.60,West,264,7.0,8.0,89,0.00,,,0.14,Wunderground v.1.15,2013-03-06 05:50:00,
2013-03-06 01:00:00,56.2,52.7,29.60,SW,223,9.0,9.0,88,0.00,,,0.14,Wunderground v.1.15,2013-03-06 06:00:00,
2013-03-06 01:05:00,56.2,52.7,29.60,NE,37,9.0,14.0,88,0.00,,,0.00,Wunderground v.1.15,2013-03-06 06:05:00,
2013-03-06 01:10:00,56.2,52.7,29.59,WNW,287,8.0,8.0,88,0.00,,,0.00,Wunderground v.1.15,2013-03-06 06:10:00,
2013-03-06 01:15:00,56.1,52.6,29.59,SSW,213,7.0,14.0,88,0.00,,,0.00,Wunderground v.1.15,2013-03-06 06:15:00,
2013-03-06 01:20:00,55.9,52.4,29.59,SW,234,6.0,6.0,88,0.00,,,0.00,Wunderground v.1.15,2013-03-06 06:20:00,
2013-03-06 01:30:00,55.8,52.6,29.58,NW,317,6.0,14.0,89,0.00,,,0.00,Wunderground v.1.15,2013-03-06 06:30:00,
2013-03-06 01:35:00,55.7,52.5,29.58,WSW,243,6.0,14.0,89,0.00,,,0.00,Wunderground v.1.15,2013-03-06 06:35:00,
2013-03-06 01:40:00,55.6,52.4,29.57,SW,221,6.0,14.0,89,0.00,,,0.00,Wunderground v.1.15,2013-03-06 06:40:00,
2013-03-06 01:45:00,55.5,52.3,29.57,NW,322,6.0,14.0,89,0.00,,,0.00,Wunderground v.1.15,2013-03-06 06:45:00,
2013-03-06 01:50:00,55.7,52.5,29.57,NNE,18,6.0,6.0,89,0.00,,,0.00,Wunderground v.1.15,2013-03-06 06:50:00,
2013-03-06 01:55:00,56.3,53.1,29.57,WSW,250,6.0,14.0,89,0.00,,,0.00,Wunderground v.1.15,2013-03-06 06:55:00,
2013-03-06 02:00:00,56.6,53.4,29.57,SE,133,6.0,6.0,89,0.00,,,0.00,Wunderground v.1.15,2013-03-06 07:00:00,
2013-03-06 02:05:00,56.9,53.4,29.57,SSW,205,5.0,19.0,88,0.00,,,0.00,Wunderground v.1.15,2013-03-06 07:05:00,
2013-03-06 02:10:00,57.3,53.8,29.57,West,262,5.0,19.0,88,0.00,,,0.00,Wunderground v.1.15,2013-03-06 07:10:00,
2013-03-06 02:15:00,57.5,54.0,29.56,NW,313,6.0,19.0,88,0.00,,,0.00,Wunderground v.1.15,2013-03-06 07:15:00,
2013-03-06 02:20:00,57.7,53.9,29.56,NE,44,7.0,7.0,87,0.00,,,0.00,Wunderground v.1.15,2013-03-06 07:20:00,
2013-03-06 02:25:00,57.8,54.0,29.56,NNE,17,6.0,19.0,87,0.00,,,0.00,Wunderground v.1.15,2013-03-06 07:25:00,
2013-03-06 02:35:00,57.8,54.0,29.55,SW,221,5.0,19.0,87,0.00,,,0.00,Wunderground v.1.15,2013-03-06 07:35:00,
2013-03-06 02:40:00,57.6,53.8,29.55,ENE,75,6.0,6.0,87,0.00,,,0.00,Wunderground v.1.15,2013-03-06 07:40:00,
2013-03-06 02:45:00,57.4,53.6,29.54,North,5,5.0,19.0,87,0.00,,,0.00,Wunderground v.1.15,2013-03-06 07:45:00,
2013-03-06 02:50:00,57.2,53.4,29.54,WSW,246,5.0,19.0,87,0.00,,,0.00,Wunderground v.1.15,2013-03-06 07:50:00,
2013-03-06 02:55:00,57.0,53.2,29.54,SE,137,5.0,19.0,87,0.00,,,0.00,Wunderground v.1.15,2013-03-06 07:55:00,
2013-03-06 03:00:00,57.0,53.2,29.54,North,5,5.0,18.0,87,0.00,,,0.00,Wunderground v.1.15,2013-03-06 08:00:00,
2013-03-06 03:10:00,56.8,53.0,29.53,SW,218,5.0,18.0,87,0.00,,,0.00,Wunderground v.1.15,2013-03-06 08:10:00,
2013-03-06 03:15:00,56.8,53.0,29.53,West,270,6.0,18.0,87,0.00,,,0.00,Wunderground v.1.15,2013-03-06 08:15:00,
2013-03-06 03:20:00,56.8,52.7,29.53,NW,315,6.0,6.0,86,0.00,,,0.00,Wunderground v.1.15,2013-03-06 08:20:00,
2013-03-06 03:25:00,56.7,52.6,29.53,SW,236,6.0,18.0,86,0.00,,,0.00,Wunderground v.1.15,2013-03-06 08:25:00,
2013-03-06 03:30:00,56.6,52.5,29.53,SSE,158,7.0,7.0,86,0.00,,,0.00,Wunderground v.1.15,2013-03-06 08:30:00,
2013-03-06 03:35:00,56.6,52.1,29.53,SW,217,7.0,10.0,85,0.00,,,0.00,Wunderground v.1.15,2013-03-06 08:35:00,
2013-03-06 03:40:00,56.5,52.0,29.53,East,79,8.0,8.0,85,0.00,,,0.00,Wunderground v.1.15,2013-03-06 08:40:00,
2013-03-06 03:45:00,56.7,51.9,29.53,SW,229,9.0,9.0,84,0.00,,,0.00,Wunderground v.1.15,2013-03-06 08:45:00,
2013-03-06 03:50:00,56.6,51.8,29.54,West,278,10.0,10.0,84,0.00,,,0.00,Wunderground v.1.15,2013-03-06 08:50:00,
2013-03-06 03:55:00,56.6,50.8,29.53,WNW,291,12.0,25.0,81,0.00,,,0.00,Wunderground v.1.15,2013-03-06 08:55:00,
2013-03-06 04:00:00,56.4,48.9,29.53,NW,309,16.0,18.0,76,0.00,,,0.00,Wunderground v.1.15,2013-03-06 09:00:00,
2013-03-06 04:05:00,56.1,47.6,29.54,WNW,291,18.0,18.0,73,0.00,,,0.00,Wunderground v.1.15,2013-03-06 09:05:00,
2013-03-06 04:10:00,55.7,45.7,29.54,WNW,287,18.0,25.0,69,0.00,,,0.00,Wunderground v.1.15,2013-03-06 09:10:00,
2013-03-06 04:15:00,55.3,45.3,29.54,WNW,292,20.0,26.0,69,0.00,,,0.00,Wunderground v.1.15,2013-03-06 09:15:00,
2013-03-06 04:20:00,54.9,45.3,29.54,West,274,21.0,21.0,70,0.00,,,0.00,Wunderground v.1.15,2013-03-06 09:20:00,
2013-03-06 04:25:00,54.6,45.0,29.54,West,281,19.0,21.0,70,0.00,,,0.00,Wunderground v.1.15,2013-03-06 09:25:00,
2013-03-06 04:30:00,54.3,44.3,29.54,West,281,19.0,26.0,69,0.00,,,0.00,Wunderground v.1.15,2013-03-06 09:30:00,
2013-03-06 04:35:00,54.0,44.1,29.55,NW,314,20.0,26.0,69,0.00,,,0.00,Wunderground v.1.15,2013-03-06 09:35:00,
2013-03-06 04:40:00,53.7,43.8,29.55,WNW,301,19.0,19.0,69,0.00,,,0.00,Wunderground v.1.15,2013-03-06 09:40:00,
2013-03-06 04:45:00,53.2,43.7,29.55,NNE,30,17.0,19.0,70,0.00,,,0.00,Wunderground v.1.15,2013-03-06 09:45:00,
2013-03-06 04:50:00,53.0,42.3,29.55,WNW,288,16.0,19.0,67,0.00,,,0.00,Wunderground v.1.15,2013-03-06 09:50:00,
2013-03-06 04:55:00,52.6,42.7,29.55,NW,311,16.0,19.0,69,0.00,,,0.00,Wunderground v.1.15,2013-03-06 09:55:00,
2013-03-06 05:00:00,52.4,42.1,29.55,WNW,284,14.0,35.0,68,0.00,,,0.00,Wunderground v.1.15,2013-03-06 10:00:00,
2013-03-06 05:05:00,52.2,42.0,29.56,NW,310,14.0,35.0,68,0.00,,,0.00,Wunderground v.1.15,2013-03-06 10:05:00,
2013-03-06 05:15:00,51.4,41.9,29.56,WNW,293,13.0,16.0,70,0.00,,,0.00,Wunderground v.1.15,2013-03-06 10:15:00,
2013-03-06 05:20:00,51.2,41.0,29.56,WNW,283,12.0,35.0,68,0.00,,,0.00,Wunderground v.1.15,2013-03-06 10:20:00,
2013-03-06 05:25:00,51.2,40.6,29.56,WSW,256,16.0,35.0,67,0.00,,,0.00,Wunderground v.1.15,2013-03-06 10:25:00,
2013-03-06 05:30:00,50.9,40.3,29.57,NW,311,18.0,35.0,67,0.00,,,0.00,Wunderground v.1.15,2013-03-06 10:30:00,
2013-03-06 05:35:00,50.6,40.4,29.57,West,281,16.0,35.0,68,0.00,,,0.00,Wunderground v.1.15,2013-03-06 10:35:00,
2013-03-06 05:40:00,50.4,39.5,29.57,NW,322,15.0,15.0,66,0.00,,,0.00,Wunderground v.1.15,2013-03-06 10:40:00,
2013-03-06 05:50:00,49.8,39.3,29.58,WNW,291,16.0,35.0,67,0.00,,,0.00,Wunderground v.1.15,2013-03-06 10:50:00,
2013-03-06 05:55:00,49.4,39.3,29.58,West,278,17.0,35.0,68,0.00,,,0.00,Wunderground v.1.15,2013-03-06 10:55:00,
2013-03-06 06:00:00,49.0,38.9,29.58,West,259,17.0,17.0,68,0.00,,,0.00,Wunderground v.1.15,2013-03-06 11:00:00,
2013-03-06 06:05:00,48.7,38.6,29.58,West,281,18.0,18.0,68,0.00,,,0.00,Wunderground v.1.15,2013-03-06 11:05:00,
2013-03-06 06:10:00,48.4,38.7,29.58,NW,307,20.0,20.0,69,0.00,,,0.00,Wunderground v.1.15,2013-03-06 11:10:00,
2013-03-06 06:15:00,48.1,38.0,29.59,NW,321,19.0,33.0,68,0.00,,,0.00,Wunderground v.1.15,2013-03-06 11:15:00,
2013-03-06 06:20:00,47.9,38.2,29.59,NW,319,17.0,17.0,69,0.00,,,0.00,Wunderground v.1.15,2013-03-06 11:20:00,
2013-03-06 06:25:00,47.8,38.1,29.59,WNW,288,17.0,33.0,69,0.00,,,0.00,Wunderground v.1.15,2013-03-06 11:25:00,
2013-03-06 06:30:00,47.8,37.7,29.59,NW,309,19.0,33.0,68,0.00,,,0.00,Wunderground v.1.15,2013-03-06 11:30:00,
2013-03-06 06:35:00,47.4,38.8,29.60,NE,44,21.0,33.0,72,0.00,,,0.00,Wunderground v.1.15,2013-03-06 11:35:00,
2013-03-06 06:40:00,46.5,38.3,29.60,WNW,297,19.0,19.0,73,0.00,,,0.00,Wunderground v.1.15,2013-03-06 11:40:00,
2013-03-06 06:45:00,45.9,37.4,29.60,NW,304,17.0,33.0,72,0.00,,,0.00,Wunderground v.1.15,2013-03-06 11:45:00,
2013-03-06 06:50:00,45.5,36.3,29.60,WNW,283,18.0,18.0,70,0.00,,,0.00,Wunderground v.1.15,2013-03-06 11:50:00,
2013-03-06 06:55:00,45.2,36.0,29.61,NW,315,19.0,23.0,70,0.00,,,0.00,Wunderground v.1.15,2013-03-06 11:55:00,
2013-03-06 07:00:00,45.1,35.5,29.60,WNW,284,20.0,36.0,69,0.00,,,0.00,Wunderground v.1.15,2013-03-06 12:00:00,
2013-03-06 07:05:00,44.9,35.3,29.61,NNW,334,20.0,36.0,69,0.00,,,0.00,Wunderground v.1.15,2013-03-06 12:05:00,
2013-03-06 07:10:00,44.8,34.5,29.61,NE,41,17.0,17.0,67,0.00,,,0.00,Wunderground v.1.15,2013-03-06 12:10:00,
2013-03-06 07:15:00,44.8,33.7,29.61,NW,307,16.0,23.0,65,0.00,,,0.00,Wunderground v.1.15,2013-03-06 12:15:00,
2013-03-06 07:25:00,45.1,34.0,29.62,NW,304,18.0,26.0,65,0.00,,,0.00,Wunderground v.1.15,2013-03-06 12:25:00,
2013-03-06 07:30:00,45.1,34.0,29.62,NNW,337,16.0,16.0,65,0.00,,,0.00,Wunderground v.1.15,2013-03-06 12:30:00,
2013-03-06 07:35:00,45.0,33.5,29.63,West,276,16.0,36.0,64,0.00,,,0.00,Wunderground v.1.15,2013-03-06 12:35:00,
2013-03-06 07:40:00,44.9,33.1,29.63,WNW,288,15.0,36.0,63,0.00,,,0.00,Wunderground v.1.15,2013-03-06 12:40:00,
2013-03-06 07:45:00,44.8,32.2,29.63,NW,307,18.0,36.0,61,0.00,,,0.00,Wunderground v.1.15,2013-03-06 12:45:00,
2013-03-06 07:50:00,44.8,33.0,29.64,NNW,328,18.0,18.0,63,0.00,,,0.00,Wunderground v.1.15,2013-03-06 12:50:00,
2013-03-06 07:55:00,44.7,32.5,29.64,NW,319,14.0,36.0,62,0.00,,,0.00,Wunderground v.1.15,2013-03-06 12:55:00,
2013-03-06 08:00:00,44.8,32.6,29.64,NNW,338,13.0,13.0,62,0.00,,,0.00,Wunderground v.1.15,2013-03-06 13:00:00,
2013-03-06 08:10:00,44.8,31.8,29.64,WNW,293,12.0,36.0,60,0.00,,,0.00,Wunderground v.1.15,2013-03-06 13:10:00,
2013-03-06 08:15:00,44.8,31.8,29.64,WNW,294,13.0,36.0,60,0.00,,,0.00,Wunderground v.1.15,2013-03-06 13:15:00,
2013-03-06 08:20:00,45.0,31.1,29.64,West,281,14.0,14.0,58,0.00,,,0.00,Wunderground v.1.15,2013-03-06 13:20:00,
2013-03-06 08:25:00,45.4,31.0,29.64,NNW,330,13.0,36.0,57,0.00,,,0.00,Wunderground v.1.15,2013-03-06 13:25:00,
2013-03-06 08:30:00,45.6,31.2,29.65,WNW,300,13.0,36.0,57,0.00,,,0.00,Wunderground v.1.15,2013-03-06 13:30:00,
2013-03-06 08:35:00,45.6,30.8,29.65,WNW,300,18.0,36.0,56,0.00,,,0.00,Wunderground v.1.15,2013-03-06 13:35:00,
2013-03-06 08:40:00,45.7,31.3,29.65,WNW,301,20.0,36.0,57,0.00,,,0.00,Wunderground v.1.15,2013-03-06 13:40:00,
2013-03-06 08:45:00,45.8,31.4,29.65,NW,308,19.0,36.0,57,0.00,,,0.00,Wunderground v.1.15,2013-03-06 13:45:00,
2013-03-06 08:50:00,46.0,31.2,29.65,NW,314,17.0,17.0,56,0.00,,,0.00,Wunderground v.1.15,2013-03-06 13:50:00,
2013-03-06 08:55:00,46.1,32.1,29.65,NNW,345,16.0,36.0,58,0.00,,,0.00,Wunderground v.1.15,2013-03-06 13:55:00,
2013-03-06 09:00:00,46.5,33.4,29.65,NNW,346,16.0,16.0,60,0.00,,,0.00,Wunderground v.1.15,2013-03-06 14:00:00,
2013-03-06 09:05:00,46.2,31.8,29.65,NW,321,15.0,36.0,57,0.00,,,0.00,Wunderground v.1.15,2013-03-06 14:05:00,
2013-03-06 09:10:00,45.9,33.6,29.66,WNW,299,15.0,36.0,62,0.00,,,0.00,Wunderground v.1.15,2013-03-06 14:10:00,
2013-03-06 09:15:00,45.3,33.0,29.65,WNW,301,16.0,36.0,62,0.00,,,0.00,Wunderground v.1.15,2013-03-06 14:15:00,
2013-03-06 09:20:00,45.4,33.5,29.65,WNW,297,19.0,19.0,63,0.00,,,0.00,Wunderground v.1.15,2013-03-06 14:20:00,
2013-03-06 09:25:00,45.9,33.2,29.66,NW,316,19.0,22.0,61,0.00,,,0.00,Wunderground v.1.15,2013-03-06 14:25:00,
2013-03-06 09:35:00,46.5,32.1,29.66,North,352,18.0,36.0,57,0.00,,,0.00,Wunderground v.1.15,2013-03-06 14:35:00,
2013-03-06 09:40:00,46.4,31.1,29.66,WNW,297,16.0,36.0,55,0.00,,,0.00,Wunderground v.1.15,2013-03-06 14:40:00,
2013-03-06 09:45:00,46.4,30.2,29.66,WNW,288,17.0,36.0,53,0.00,,,0.00,Wunderground v.1.15,2013-03-06 14:45:00,
2013-03-06 09:50:00,46.7,30.5,29.65,NE,44,15.0,15.0,53,0.00,,,0.00,Wunderground v.1.15,2013-03-06 14:50:00,
2013-03-06 09:55:00,47.1,30.4,29.65,West,280,13.0,36.0,52,0.00,,,0.00,Wunderground v.1.15,2013-03-06 14:55:00,
2013-03-06 10:00:00,47.1,29.9,29.66,WNW,301,13.0,13.0,51,0.00,,,0.00,Wunderground v.1.15,2013-03-06 15:00:00,
2013-03-06 10:10:00,46.7,27.0,29.66,NW,321,19.0,40.0,46,0.00,,,0.00,Wunderground v.1.15,2013-03-06 15:10:00,
2013-03-06 10:15:00,46.7,26.5,29.66,NW,317,18.0,40.0,45,0.00,,,0.00,Wunderground v.1.15,2013-03-06 15:15:00,
2013-03-06 10:20:00,46.7,27.5,29.66,West,278,19.0,40.0,47,0.00,,,0.00,Wunderground v.1.15,2013-03-06 15:20:00,
2013-03-06 10:25:00,46.7,29.0,29.66,NW,309,20.0,40.0,50,0.00,,,0.00,Wunderground v.1.15,2013-03-06 15:25:00,
2013-03-06 10:30:00,47.3,29.6,29.66,WNW,297,17.0,17.0,50,0.00,,,0.00,Wunderground v.1.15,2013-03-06 15:30:00,
2013-03-06 10:40:00,47.8,30.0,29.67,North,351,12.0,12.0,50,0.00,,,0.00,Wunderground v.1.15,2013-03-06 15:40:00,
2013-03-06 10:45:00,47.5,30.3,29.67,WNW,298,12.0,18.0,51,0.00,,,0.00,Wunderground v.1.15,2013-03-06 15:45:00,
2013-03-06 10:50:00,47.1,30.4,29.66,West,277,12.0,12.0,52,0.00,,,0.00,Wunderground v.1.15,2013-03-06 15:50:00,
2013-03-06 10:55:00,47.4,29.7,29.66,WNW,301,11.0,17.0,50,0.00,,,0.00,Wunderground v.1.15,2013-03-06 15:55:00,
2013-03-06 11:00:00,47.6,29.9,29.66,WNW,300,12.0,36.0,50,0.00,,,0.00,Wunderground v.1.15,2013-03-06 16:00:00,
2013-03-06 11:10:00,46.7,28.5,29.67,NNW,331,19.0,19.0,49,0.00,,,0.00,Wunderground v.1.15,2013-03-06 16:10:00,
2013-03-06 11:15:00,47.3,29.6,29.67,North,354,16.0,36.0,50,0.00,,,0.00,Wunderground v.1.15,2013-03-06 16:15:00,
2013-03-06 11:20:00,47.2,28.5,29.67,NNW,347,14.0,14.0,48,0.00,,,0.00,Wunderground v.1.15,2013-03-06 16:20:00,
2013-03-06 11:25:00,47.0,28.3,29.67,WNW,293,16.0,18.0,48,0.00,,,0.00,Wunderground v.1.15,2013-03-06 16:25:00,
2013-03-06 11:30:00,47.2,28.5,29.67,WNW,297,19.0,36.0,48,0.00,,,0.00,Wunderground v.1.15,2013-03-06 16:30:00,
2013-03-06 11:35:00,47.9,28.6,29.67,NW,305,18.0,36.0,47,0.00,,,0.00,Wunderground v.1.15,2013-03-06 16:35:00,
2013-03-06 11:45:00,47.5,29.8,29.67,WNW,288,19.0,36.0,50,0.00,,,0.00,Wunderground v.1.15,2013-03-06 16:45:00,
2013-03-06 11:50:00,47.3,28.6,29.67,NW,325,22.0,22.0,48,0.00,,,0.00,Wunderground v.1.15,2013-03-06 16:50:00,
2013-03-06 11:55:00,47.5,29.3,29.67,WNW,300,21.0,32.0,49,0.00,,,0.00,Wunderground v.1.15,2013-03-06 16:55:00,
2013-03-06 12:00:00,47.5,28.3,29.67,NW,323,20.0,20.0,47,0.00,,,0.00,Wunderground v.1.15,2013-03-06 17:00:00,
2013-03-06 12:05:00,47.9,29.1,29.67,WNW,301,17.0,33.0,48,0.00,,,0.00,Wunderground v.1.15,2013-03-06 17:05:00,
2013-03-06 12:15:00,47.5,29.8,29.67,NW,307,16.0,33.0,50,0.00,,,0.00,Wunderground v.1.15,2013-03-06 17:15:00,
2013-03-06 12:20:00,47.3,29.1,29.67,West,270,19.0,33.0,49,0.00,,,0.00,Wunderground v.1.15,2013-03-06 17:20:00,
2013-03-06 12:25:00,47.6,29.9,29.67,WNW,294,20.0,33.0,50,0.00,,,0.00,Wunderground v.1.15,2013-03-06 17:25:00,
2013-03-06 12:30:00,47.7,29.5,29.67,WNW,288,21.0,21.0,49,0.00,,,0.00,Wunderground v.1.15,2013-03-06 17:30:00,
2013-03-06 12:35:00,47.8,29.0,29.67,NW,323,22.0,22.0,48,0.00,,,0.00,Wunderground v.1.15,2013-03-06 17:35:00,
2013-03-06 12:40:00,48.1,30.3,29.67,NNW,336,20.0,20.0,50,0.00,,,0.00,Wunderground v.1.15,2013-03-06 17:40:00,
2013-03-06 12:45:00,48.4,29.6,29.66,WNW,300,18.0,21.0,48,0.00,,,0.00,Wunderground v.1.15,2013-03-06 17:45:00,
2013-03-06 12:50:00,48.5,30.2,29.67,North,349,17.0,17.0,49,0.00,,,0.00,Wunderground v.1.15,2013-03-06 17:50:00,
2013-03-06 12:55:00,48.3,30.0,29.66,WNW,302,16.0,20.0,49,0.00,,,0.00,Wunderground v.1.15,2013-03-06 17:55:00,
2013-03-06 13:00:00,48.4,29.1,29.66,WNW,291,16.0,34.0,47,0.00,,,0.00,Wunderground v.1.15,2013-03-06 18:00:00,
2013-03-06 13:05:00,48.4,30.6,29.65,WNW,288,19.0,34.0,50,0.00,,,0.00,Wunderground v.1.15,2013-03-06 18:05:00,
2013-03-06 13:10:00,48.9,30.6,29.65,NW,307,19.0,19.0,49,0.00,,,0.00,Wunderground v.1.15,2013-03-06 18:10:00,
2013-03-06 13:15:00,48.9,29.5,29.65,NW,307,16.0,21.0,47,0.00,,,0.00,Wunderground v.1.15,2013-03-06 18:15:00,
2013-03-06 13:20:00,48.9,29.0,29.65,NNW,328,15.0,34.0,46,0.00,,,0.00,Wunderground v.1.15,2013-03-06 18:20:00,
2013-03-06 13:25:00,49.1,29.2,29.65,WNW,292,15.0,34.0,46,0.00,,,0.00,Wunderground v.1.15,2013-03-06 18:25:00,
2013-03-06 13:30:00,49.6,31.2,29.65,NW,304,15.0,15.0,49,0.00,,,0.00,Wunderground v.1.15,2013-03-06 18:30:00,
2013-03-06 13:35:00,49.5,29.6,29.65,NW,325,16.0,22.0,46,0.00,,,0.00,Wunderground v.1.15,2013-03-06 18:35:00,
2013-03-06 13:40:00,50.0,29.5,29.65,NW,309,19.0,34.0,45,0.00,,,0.00,Wunderground v.1.15,2013-03-06 18:40:00,
2013-03-06 13:45:00,49.7,30.3,29.65,NNW,327,22.0,34.0,47,0.00,,,0.00,Wunderground v.1.15,2013-03-06 18:45:00,
2013-03-06 13:50:00,49.1,28.1,29.65,North,351,23.0,23.0,44,0.00,,,0.00,Wunderground v.1.15,2013-03-06 18:50:00,
2013-03-06 13:55:00,49.0,29.6,29.65,West,263,19.0,34.0,47,0.00,,,0.00,Wunderground v.1.15,2013-03-06 18:55:00,
2013-03-06 14:00:00,49.5,30.6,29.65,NNW,340,14.0,14.0,48,0.00,,,0.00,Wunderground v.1.15,2013-03-06 19:00:00,
2013-03-06 14:05:00,49.6,29.6,29.65,NW,315,16.0,26.0,46,0.00,,,0.00,Wunderground v.1.15,2013-03-06 19:05:00,
2013-03-06 14:10:00,49.5,29.0,29.65,WNW,297,19.0,19.0,45,0.00,,,0.00,Wunderground v.1.15,2013-03-06 19:10:00,
2013-03-06 14:15:00,49.6,28.6,29.65,WNW,283,20.0,20.0,44,0.00,,,0.00,Wunderground v.1.15,2013-03-06 19:15:00,
2013-03-06 14:20:00,50.1,30.6,29.65,NNW,336,19.0,19.0,47,0.00,,,0.00,Wunderground v.1.15,2013-03-06 19:20:00,
2013-03-06 14:25:00,49.8,29.3,29.66,North,350,17.0,31.0,45,0.00,,,0.00,Wunderground v.1.15,2013-03-06 19:25:00,
2013-03-06 14:30:00,49.6,29.6,29.66,WNW,294,16.0,16.0,46,0.00,,,0.00,Wunderground v.1.15,2013-03-06 19:30:00,
2013-03-06 14:35:00,49.3,29.4,29.66,NW,306,15.0,25.0,46,0.00,,,0.00,Wunderground v.1.15,2013-03-06 19:35:00,
2013-03-06 14:40:00,49.2,29.3,29.66,NW,321,15.0,15.0,46,0.00,,,0.00,Wunderground v.1.15,2013-03-06 19:40:00,
2013-03-06 14:45:00,49.8,29.8,29.66,NW,325,15.0,16.0,46,0.00,,,0.00,Wunderground v.1.15,2013-03-06 19:45:00,
2013-03-06 14:50:00,50.5,29.9,29.66,WNW,284,17.0,31.0,45,0.00,,,0.00,Wunderground v.1.15,2013-03-06 19:50:00,
2013-03-06 14:55:00,50.4,29.3,29.66,North,5,19.0,31.0,44,0.00,,,0.00,Wunderground v.1.15,2013-03-06 19:55:00,
2013-03-06 15:00:00,50.6,28.9,29.66,North,5,18.0,18.0,43,0.00,,,0.00,Wunderground v.1.15,2013-03-06 20:00:00,
2013-03-06 15:05:00,50.8,29.1,29.67,WNW,288,15.0,25.0,43,0.00,,,0.00,Wunderground v.1.15,2013-03-06 20:05:00,
2013-03-06 15:10:00,50.5,28.8,29.67,NW,305,16.0,16.0,43,0.00,,,0.00,Wunderground v.1.15,2013-03-06 20:10:00,
2013-03-06 15:15:00,50.9,29.2,29.66,NW,326,17.0,23.0,43,0.00,,,0.00,Wunderground v.1.15,2013-03-06 20:15:00,
2013-03-06 15:20:00,50.6,29.5,29.67,NW,326,17.0,37.0,44,0.00,,,0.00,Wunderground v.1.15,2013-03-06 20:20:00,
2013-03-06 15:30:00,50.8,29.6,29.67,North,351,15.0,15.0,44,0.00,,,0.00,Wunderground v.1.15,2013-03-06 20:30:00,
2013-03-06 15:35:00,50.6,30.0,29.67,NW,321,15.0,37.0,45,0.00,,,0.00,Wunderground v.1.15,2013-03-06 20:35:00,
2013-03-06 15:40:00,50.3,29.7,29.67,North,360,15.0,15.0,45,0.00,,,0.00,Wunderground v.1.15,2013-03-06 20:40:00,
2013-03-06 15:45:00,50.3,30.8,29.67,NW,312,16.0,16.0,47,0.00,,,0.00,Wunderground v.1.15,2013-03-06 20:45:00,
2013-03-06 15:50:00,50.3,29.2,29.67,NW,316,16.0,37.0,44,0.00,,,0.00,Wunderground v.1.15,2013-03-06 20:50:00,
2013-03-06 15:55:00,50.2,29.1,29.67,WNW,293,17.0,37.0,44,0.00,,,0.00,Wunderground v.1.15,2013-03-06 20:55:00,
2013-03-06 16:00:00,50.0,29.5,29.67,NNW,327,18.0,33.0,45,0.00,,,0.00,Wunderground v.1.15,2013-03-06 21:00:00,
2013-03-06 16:10:00,49.8,31.4,29.68,NW,307,17.0,17.0,49,0.00,,,0.00,Wunderground v.1.15,2013-03-06 21:10:00,
2013-03-06 16:15:00,50.1,30.6,29.69,NW,305,16.0,33.0,47,0.00,,,0.00,Wunderground v.1.15,2013-03-06 21:15:00,
2013-03-06 16:20:00,49.8,31.4,29.69,NNW,338,14.0,14.0,49,0.00,,,0.00,Wunderground v.1.15,2013-03-06 21:20:00,
2013-03-06 16:25:00,49.5,30.1,29.70,NNW,331,16.0,18.0,47,0.00,,,0.00,Wunderground v.1.15,2013-03-06 21:25:00,
2013-03-06 16:30:00,49.3,30.4,29.70,WNW,297,16.0,33.0,48,0.00,,,0.00,Wunderground v.1.15,2013-03-06 21:30:00,
2013-03-06 16:35:00,49.2,30.8,29.71,NW,325,15.0,33.0,49,0.00,,,0.00,Wunderground v.1.15,2013-03-06 21:35:00,
2013-03-06 16:40:00,49.1,30.7,29.71,West,273,16.0,16.0,49,0.00,,,0.00,Wunderground v.1.15,2013-03-06 21:40:00,
2013-03-06 16:45:00,49.1,31.2,29.72,NW,314,15.0,23.0,50,0.00,,,0.00,Wunderground v.1.15,2013-03-06 21:45:00,
2013-03-06 16:50:00,49.1,31.2,29.72,NW,325,15.0,15.0,50,0.00,,,0.00,Wunderground v.1.15,2013-03-06 21:50:00,
2013-03-06 16:55:00,49.1,31.7,29.72,NNW,333,16.0,16.0,51,0.00,,,0.00,Wunderground v.1.15,2013-03-06 21:55:00,
2013-03-06 17:00:00,49.0,31.2,29.73,NW,317,16.0,37.0,50,0.00,,,0.00,Wunderground v.1.15,2013-03-06 22:00:00,
2013-03-06 17:05:00,48.9,31.5,29.73,NW,322,19.0,37.0,51,0.00,,,0.00,Wunderground v.1.15,2013-03-06 22:05:00,
2013-03-06 17:10:00,48.7,30.9,29.73,NW,314,20.0,37.0,50,0.00,,,0.00,Wunderground v.1.15,2013-03-06 22:10:00,
2013-03-06 17:15:00,48.7,32.3,29.74,NW,309,18.0,37.0,53,0.00,,,0.00,Wunderground v.1.15,2013-03-06 22:15:00,
2013-03-06 17:20:00,48.7,32.3,29.74,NNW,330,16.0,37.0,53,0.00,,,0.00,Wunderground v.1.15,2013-03-06 22:20:00,
2013-03-06 17:25:00,48.7,31.8,29.75,WNW,297,17.0,37.0,52,0.00,,,0.00,Wunderground v.1.15,2013-03-06 22:25:00,
2013-03-06 17:30:00,48.6,31.3,29.75,NW,326,18.0,37.0,51,0.00,,,0.00,Wunderground v.1.15,2013-03-06 22:30:00,
2013-03-06 17:40:00,48.4,32.5,29.76,NW,314,17.0,37.0,54,0.00,,,0.00,Wunderground v.1.15,2013-03-06 22:40:00,
2013-03-06 17:45:00,48.4,32.0,29.76,NW,311,16.0,37.0,53,0.00,,,0.00,Wunderground v.1.15,2013-03-06 22:45:00,
2013-03-06 17:50:00,48.3,31.9,29.76,NNW,329,14.0,37.0,53,0.00,,,0.00,Wunderground v.1.15,2013-03-06 22:50:00,
2013-03-06 17:55:00,48.3,31.9,29.77,North,354,13.0,37.0,53,0.00,,,0.00,Wunderground v.1.15,2013-03-06 22:55:00,
2013-03-06 18:00:00,48.2,31.9,29.77,NW,319,13.0,13.0,53,0.00,,,0.00,Wunderground v.1.15,2013-03-06 23:00:00,
2013-03-06 18:10:00,48.1,31.8,29.78,North,7,16.0,35.0,53,0.00,,,0.00,Wunderground v.1.15,2013-03-06 23:10:00,
2013-03-06 18:15:00,48.1,32.2,29.79,NW,319,17.0,35.0,54,0.00,,,0.00,Wunderground v.1.15,2013-03-06 23:15:00,
2013-03-06 18:20:00,48.1,32.7,29.80,NNW,337,18.0,18.0,55,0.00,,,0.00,Wunderground v.1.15,2013-03-06 23:20:00,
2013-03-06 18:25:00,47.9,33.8,29.80,NNW,337,19.0,19.0,58,0.00,,,0.00,Wunderground v.1.15,2013-03-06 23:25:00,
2013-03-06 18:30:00,47.8,34.2,29.80,NW,326,20.0,20.0,59,0.00,,,0.00,Wunderground v.1.15,2013-03-06 23:30:00,
2013-03-06 18:35:00,47.7,34.1,29.80,NW,315,19.0,35.0,59,0.00,,,0.00,Wunderground v.1.15,2013-03-06 23:35:00,
2013-03-06 18:45:00,47.7,34.5,29.81,NNW,327,18.0,35.0,60,0.00,,,0.00,Wunderground v.1.15,2013-03-06 23:45:00,
2013-03-06 18:50:00,47.6,34.8,29.81,NNW,338,16.0,35.0,61,0.00,,,0.00,Wunderground v.1.15,2013-03-06 23:50:00,
2013-03-06 18:55:00,47.7,34.5,29.82,North,350,18.0,35.0,60,0.00,,,0.00,Wunderground v.1.15,2013-03-06 23:55:00,
2013-03-06 19:00:00,47.7,34.9,29.82,NNW,337,19.0,19.0,61,0.00,,,0.00,Wunderground v.1.15,2013-03-07 00:00:00,
2013-03-06 19:05:00,47.5,35.1,29.83,North,11,18.0,41.0,62,0.00,,,0.00,Wunderground v.1.15,2013-03-07 00:05:00,
2013-03-06 19:10:00,47.3,34.9,29.83,NW,326,19.0,41.0,62,0.00,,,0.00,Wunderground v.1.15,2013-03-07 00:10:00,
2013-03-06 19:15:00,47.0,35.0,29.84,NNW,327,22.0,41.0,63,0.00,,,0.00,Wunderground v.1.15,2013-03-07 00:15:00,
2013-03-06 19:20:00,46.7,34.8,29.84,NNW,342,23.0,23.0,63,0.00,,,0.00,Wunderground v.1.15,2013-03-07 00:20:00,
2013-03-06 19:25:00,46.6,35.1,29.84,NNW,348,20.0,41.0,64,0.00,,,0.00,Wunderground v.1.15,2013-03-07 00:25:00,
2013-03-06 19:30:00,46.5,35.4,29.85,NW,304,18.0,18.0,65,0.00,,,0.00,Wunderground v.1.15,2013-03-07 00:30:00,
2013-03-06 19:35:00,46.4,36.0,29.85,NW,311,17.0,41.0,67,0.00,,,0.00,Wunderground v.1.15,2013-03-07 00:35:00,
2013-03-06 19:45:00,45.8,36.2,29.85,NW,317,17.0,41.0,69,0.00,,,0.00,Wunderground v.1.15,2013-03-07 00:45:00,
2013-03-06 19:50:00,45.8,36.6,29.85,NW,323,16.0,16.0,70,0.00,,,0.00,Wunderground v.1.15,2013-03-07 00:50:00,
2013-03-06 19:55:00,45.7,36.5,29.86,NNW,330,16.0,41.0,70,0.00,,,0.00,Wunderground v.1.15,2013-03-07 00:55:00,
2013-03-06 20:00:00,45.6,36.7,29.87,NNW,342,15.0,39.0,71,0.00,,,0.00,Wunderground v.1.15,2013-03-07 01:00:00,
2013-03-06 20:05:00,45.5,36.6,29.87,NNE,23,16.0,39.0,71,0.00,,,0.00,Wunderground v.1.15,2013-03-07 01:05:00,
2013-03-06 20:15:00,45.4,36.9,29.88,NNW,333,20.0,20.0,72,0.00,,,0.00,Wunderground v.1.15,2013-03-07 01:15:00,
2013-03-06 20:20:00,45.5,36.6,29.88,NNE,25,21.0,21.0,71,0.00,,,0.00,Wunderground v.1.15,2013-03-07 01:20:00,
2013-03-06 20:25:00,45.4,36.5,29.89,WNW,299,20.0,39.0,71,0.00,,,0.00,Wunderground v.1.15,2013-03-07 01:25:00,
2013-03-06 20:30:00,45.5,36.6,29.89,NW,312,18.0,39.0,71,0.00,,,0.00,Wunderground v.1.15,2013-03-07 01:30:00,
2013-03-06 20:35:00,45.5,36.3,29.88,NNW,330,17.0,39.0,70,0.00,,,0.00,Wunderground v.1.15,2013-03-07 01:35:00,
2013-03-06 20:40:00,45.6,36.4,29.89,NNW,333,16.0,39.0,70,0.00,,,0.00,Wunderground v.1.15,2013-03-07 01:40:00,
2013-03-06 20:45:00,45.6,36.4,29.89,NNE,13,17.0,39.0,70,0.00,,,0.00,Wunderground v.1.15,2013-03-07 01:45:00,
2013-03-06 20:50:00,45.5,36.3,29.89,North,11,18.0,18.0,70,0.00,,,0.00,Wunderground v.1.15,2013-03-07 01:50:00,
2013-03-06 21:00:00,45.3,36.4,29.89,NNW,338,18.0,18.0,71,0.00,,,0.00,Wunderground v.1.15,2013-03-07 02:00:00,
2013-03-06 21:05:00,45.2,36.7,29.90,North,11,19.0,27.0,72,0.00,,,0.00,Wunderground v.1.15,2013-03-07 02:05:00,
2013-03-06 21:10:00,45.1,36.6,29.90,North,349,19.0,19.0,72,0.00,,,0.00,Wunderground v.1.15,2013-03-07 02:10:00,
2013-03-06 21:15:00,45.0,36.5,29.91,NW,307,17.0,35.0,72,0.00,,,0.00,Wunderground v.1.15,2013-03-07 02:15:00,
2013-03-06 21:20:00,44.9,36.4,29.91,North,350,16.0,35.0,72,0.00,,,0.00,Wunderground v.1.15,2013-03-07 02:20:00,
2013-03-06 21:25:00,44.7,36.2,29.91,NNE,30,18.0,35.0,72,0.00,,,0.00,Wunderground v.1.15,2013-03-07 02:25:00,
2013-03-06 21:30:00,44.5,36.0,29.91,North,356,18.0,18.0,72,0.00,,,0.00,Wunderground v.1.15,2013-03-07 02:30:00,
2013-03-06 21:35:00,44.3,35.8,29.92,NNW,341,18.0,35.0,72,0.00,,,0.00,Wunderground v.1.15,2013-03-07 02:35:00,
2013-03-06 21:40:00,44.3,35.8,29.92,NNW,338,17.0,35.0,72,0.00,,,0.00,Wunderground v.1.15,2013-03-07 02:40:00,
2013-03-06 21:45:00,44.2,36.1,29.92,NNW,327,16.0,35.0,73,0.00,,,0.00,Wunderground v.1.15,2013-03-07 02:45:00,
2013-03-06 21:50:00,44.1,35.6,29.92,NNW,342,15.0,15.0,72,0.00,,,0.00,Wunderground v.1.15,2013-03-07 02:50:00,
2013-03-06 21:55:00,44.1,36.0,29.92,North,354,15.0,16.0,73,0.00,,,0.00,Wunderground v.1.15,2013-03-07 02:55:00,
2013-03-06 22:00:00,44.1,36.0,29.93,NNW,339,14.0,14.0,73,0.00,,,0.00,Wunderground v.1.15,2013-03-07 03:00:00,
2013-03-06 22:05:00,44.1,35.6,29.93,NNE,33,15.0,15.0,72,0.00,,,0.00,Wunderground v.1.15,2013-03-07 03:05:00,
2013-03-06 22:10:00,44.0,35.9,29.93,NNW,330,13.0,34.0,73,0.00,,,0.00,Wunderground v.1.15,2013-03-07 03:10:00,
2013-03-06 22:15:00,43.9,35.8,29.94,North,4,12.0,34.0,73,0.00,,,0.00,Wunderground v.1.15,2013-03-07 03:15:00,
2013-03-06 22:20:00,43.9,35.8,29.94,ENE,75,11.0,34.0,73,0.00,,,0.00,Wunderground v.1.15,2013-03-07 03:20:00,
2013-03-06 22:25:00,43.8,35.7,29.94,WNW,283,10.0,34.0,73,0.00,,,0.00,Wunderground v.1.15,2013-03-07 03:25:00,
2013-03-06 22:30:00,44.0,35.6,29.94,North,11,11.0,34.0,72,0.00,,,0.00,Wunderground v.1.15,2013-03-07 03:30:00,
2013-03-06 22:35:00,43.9,35.5,29.94,North,1,12.0,34.0,72,0.00,,,0.00,Wunderground v.1.15,2013-03-07 03:35:00,
2013-03-06 22:40:00,44.0,35.2,29.94,NW,311,13.0,13.0,71,0.00,,,0.00,Wunderground v.1.15,2013-03-07 03:40:00,
2013-03-06 22:45:00,44.1,34.9,29.94,NNE,22,14.0,14.0,70,0.00,,,0.00,Wunderground v.1.15,2013-03-07 03:45:00,
2013-03-06 22:50:00,43.9,34.7,29.94,NNW,327,11.0,11.0,70,0.00,,,0.00,Wunderground v.1.15,2013-03-07 03:50:00,
2013-03-06 22:55:00,43.9,34.7,29.94,NNW,332,12.0,12.0,70,0.00,,,0.00,Wunderground v.1.15,2013-03-07 03:55:00,
2013-03-06 23:00:00,43.8,34.6,29.94,WNW,299,12.0,12.0,70,0.00,,,0.00,Wunderground v.1.15,2013-03-07 04:00:00,
2013-03-06 23:05:00,43.7,34.6,29.95,NNE,25,10.0,24.0,70,0.00,,,0.00,Wunderground v.1.15,2013-03-07 04:05:00,
2013-03-06 23:10:00,43.6,34.5,29.95,NNE,13,11.0,24.0,70,0.00,,,0.00,Wunderground v.1.15,2013-03-07 04:10:00,
2013-03-06 23:15:00,43.6,34.5,29.95,NW,326,11.0,24.0,70,0.00,,,0.00,Wunderground v.1.15,2013-03-07 04:15:00,
2013-03-06 23:20:00,43.4,34.6,29.95,NNE,25,11.0,11.0,71,0.00,,,0.00,Wunderground v.1.15,2013-03-07 04:20:00,
2013-03-06 23:25:00,43.3,34.5,29.96,NW,307,10.0,13.0,71,0.00,,,0.00,Wunderground v.1.15,2013-03-07 04:25:00,
2013-03-06 23:30:00,43.3,34.5,29.96,NW,325,10.0,10.0,71,0.00,,,0.00,Wunderground v.1.15,2013-03-07 04:30:00,
2013-03-06 23:35:00,43.2,34.4,29.96,North,356,10.0,15.0,71,0.00,,,0.00,Wunderground v.1.15,2013-03-07 04:35:00,
2013-03-06 23:40:00,43.2,34.1,29.96,NW,321,11.0,11.0,70,0.00,,,0.00,Wunderground v.1.15,2013-03-07 04:40:00,
2013-03-06 23:45:00,43.3,34.2,29.96,NW,318,13.0,14.0,70,0.00,,,0.00,Wunderground v.1.15,2013-03-07 04:45:00,
2013-03-06 23:50:00,43.1,34.0,29.96,NNW,339,12.0,12.0,70,0.00,,,0.00,Wunderground v.1.15,2013-03-07 04:50:00,
2013-03-06 23:55:00,42.9,34.1,29.96,NNE,18,9.0,24.0,71,0.00,,,0.00,Wunderground v.1.15,2013-03-07 04:55:00,